Time,TemperatureF,DewpointF,PressureIn,WindDirection,WindDirectionDegrees,WindSpeedMPH,WindSpeedGustMPH,Humidity,HourlyPrecipIn,Conditions,Clouds,dailyrainin,SoftwareType,DateUTC
2013-12-28 00:03:00,24.5,22.2,30.30,West,280,0.0,0.0,91,0.00,,,0.00,Wunderground v.1.15,2013-12-28 05:03:00,
2013-12-28 00:08:00,24.3,22.1,30.30,West,280,0.0,0.0,91,0.00,,,0.00,Wunderground v.1.15,2013-12-28 05:08:00,
2013-12-28 00:13:00,24.5,22.8,30.30,West,280,0.0,0.0,93,0.00,,,0.00,Wunderground v.1.15,2013-12-28 05:13:00,
2013-12-28 00:23:00,24.2,22.0,30.29,West,280,0.0,0.0,91,0.00,,,0.00,Wunderground v.1.15,2013-12-28 05:23:00,
2013-12-28 00:28:00,24.1,21.9,30.29,West,280,0.0,0.0,91,0.00,,,0.00,Wunderground v.1.15,2013-12-28 05:28:00,
2013-12-28 00:33:00,24.2,22.2,30.29,West,280,0.0,0.0,92,0.00,,,0.00,Wunderground v.1.15,2013-12-28 05:33:00,
2013-12-28 00:39:00,24.6,23.1,30.29,West,280,0.0,0.0,94,0.00,,,0.00,Wunderground v.1.15,2013-12-28 05:39:00,
2013-12-28 00:44:00,24.4,22.4,30.29,West,280,0.0,0.0,92,0.00,,,0.00,Wunderground v.1.15,2013-12-28 05:44:00,
2013-12-28 00:54:00,23.3,21.1,30.30,West,280,0.0,0.0,91,0.00,,,0.00,Wunderground v.1.15,2013-12-28 05:54:00,
2013-12-28 00:59:00,23.1,20.9,30.29,West,280,0.0,0.0,91,0.00,,,0.00,Wunderground v.1.15,2013-12-28 05:59:00,
2013-12-28 01:09:00,23.1,21.4,30.29,West,280,0.0,0.0,93,0.00,,,0.00,Wunderground v.1.15,2013-12-28 06:09:00,
2013-12-28 01:14:00,23.4,21.7,30.29,West,280,0.0,0.0,93,0.00,,,0.00,Wunderground v.1.15,2013-12-28 06:14:00,
2013-12-28 01:24:00,23.7,22.0,30.29,West,280,0.0,0.0,93,0.00,,,0.00,Wunderground v.1.15,2013-12-28 06:24:00,
2013-12-28 01:29:00,23.8,22.1,30.29,West,280,0.0,0.0,93,0.00,,,0.00,Wunderground v.1.15,2013-12-28 06:29:00,
2013-12-28 01:39:00,23.8,22.3,30.29,West,280,0.0,0.0,94,0.00,,,0.00,Wunderground v.1.15,2013-12-28 06:39:00,
2013-12-28 01:44:00,23.8,22.3,30.30,West,280,0.0,0.0,94,0.00,,,0.00,Wunderground v.1.15,2013-12-28 06:44:00,
2013-12-28 01:54:00,23.1,21.1,30.29,West,280,0.0,0.0,92,0.00,,,0.00,Wunderground v.1.15,2013-12-28 06:54:00,
2013-12-28 01:59:00,22.9,20.9,30.30,West,280,0.0,0.0,92,0.00,,,0.00,Wunderground v.1.15,2013-12-28 06:59:00,
2013-12-28 02:09:00,23.9,22.7,30.30,West,280,0.0,0.0,95,0.00,,,0.00,Wunderground v.1.15,2013-12-28 07:09:00,
2013-12-28 02:14:00,24.1,22.6,30.30,West,280,0.0,0.0,94,0.00,,,0.00,Wunderground v.1.15,2013-12-28 07:14:00,
2013-12-28 02:24:00,23.9,22.2,30.30,West,280,0.0,0.0,93,0.00,,,0.00,Wunderground v.1.15,2013-12-28 07:24:00,
2013-12-28 02:29:00,23.5,21.5,30.30,West,280,0.0,0.0,92,0.00,,,0.00,Wunderground v.1.15,2013-12-28 07:29:00,
2013-12-28 02:39:00,22.7,20.7,30.29,West,280,0.0,0.0,92,0.00,,,0.00,Wunderground v.1.15,2013-12-28 07:39:00,
2013-12-28 02:44:00,22.3,20.3,30.29,West,280,0.0,0.0,92,0.00,,,0.00,Wunderground v.1.15,2013-12-28 07:44:00,
2013-12-28 02:54:00,21.7,19.7,30.28,West,280,0.0,0.0,92,0.00,,,0.00,Wunderground v.1.15,2013-12-28 07:54:00,
2013-12-28 02:59:00,21.7,19.7,30.28,West,280,0.0,0.0,92,0.00,,,0.00,Wunderground v.1.15,2013-12-28 07:59:00,
2013-12-28 03:09:00,22.5,21.0,30.28,West,280,0.0,0.0,94,0.00,,,0.00,Wunderground v.1.15,2013-12-28 08:09:00,
2013-12-28 03:14:00,22.3,20.6,30.28,West,280,0.0,0.0,93,0.00,,,0.00,Wunderground v.1.15,2013-12-28 08:14:00,
2013-12-28 03:24:00,22.0,20.3,30.27,West,280,0.0,0.0,93,0.00,,,0.00,Wunderground v.1.15,2013-12-28 08:24:00,
2013-12-28 03:29:00,21.7,19.7,30.27,West,280,0.0,0.0,92,0.00,,,0.00,Wunderground v.1.15,2013-12-28 08:29:00,
2013-12-28 03:39:00,21.7,20.0,30.27,West,280,0.0,0.0,93,0.00,,,0.00,Wunderground v.1.15,2013-12-28 08:39:00,
2013-12-28 03:44:00,21.6,19.9,30.27,West,280,0.0,0.0,93,0.00,,,0.00,Wunderground v.1.15,2013-12-28 08:44:00,
2013-12-28 03:54:00,21.7,20.0,30.27,West,280,0.0,0.0,93,0.00,,,0.00,Wunderground v.1.15,2013-12-28 08:54:00,
2013-12-28 03:59:00,21.6,19.9,30.27,West,280,0.0,0.0,93,0.00,,,0.00,Wunderground v.1.15,2013-12-28 08:59:00,
2013-12-28 04:09:00,21.3,19.6,30.26,West,280,0.0,0.0,93,0.00,,,0.00,Wunderground v.1.15,2013-12-28 09:09:00,
2013-12-28 04:14:00,21.2,19.5,30.25,West,280,0.0,0.0,93,0.00,,,0.00,Wunderground v.1.15,2013-12-28 09:14:00,
2013-12-28 04:24:00,21.6,20.1,30.25,West,280,0.0,0.0,94,0.00,,,0.00,Wunderground v.1.15,2013-12-28 09:24:00,
2013-12-28 04:29:00,21.4,19.7,30.25,West,280,0.0,0.0,93,0.00,,,0.00,Wunderground v.1.15,2013-12-28 09:29:00,
2013-12-28 04:39:00,20.8,19.1,30.25,West,280,0.0,0.0,93,0.00,,,0.00,Wunderground v.1.15,2013-12-28 09:39:00,
2013-12-28 04:44:00,20.6,18.9,30.25,West,280,0.0,0.0,93,0.00,,,0.00,Wunderground v.1.15,2013-12-28 09:44:00,
2013-12-28 04:54:00,20.8,19.3,30.24,West,280,0.0,0.0,94,0.00,,,0.00,Wunderground v.1.15,2013-12-28 09:54:00,
2013-12-28 04:59:00,21.6,20.4,30.24,West,280,0.0,0.0,95,0.00,,,0.00,Wunderground v.1.15,2013-12-28 09:59:00,
2013-12-28 05:09:00,21.3,19.8,30.24,West,280,0.0,0.0,94,0.00,,,0.00,Wunderground v.1.15,2013-12-28 10:09:00,
2013-12-28 05:14:00,20.9,19.2,30.24,West,280,0.0,0.0,93,0.00,,,0.00,Wunderground v.1.15,2013-12-28 10:14:00,
2013-12-28 05:24:00,20.6,18.9,30.23,West,280,0.0,0.0,93,0.00,,,0.00,Wunderground v.1.15,2013-12-28 10:24:00,
2013-12-28 05:29:00,20.6,19.1,30.24,West,280,0.0,0.0,94,0.00,,,0.00,Wunderground v.1.15,2013-12-28 10:29:00,
2013-12-28 05:39:00,20.3,18.6,30.24,West,280,0.0,0.0,93,0.00,,,0.00,Wunderground v.1.15,2013-12-28 10:39:00,
2013-12-28 05:44:00,20.2,18.5,30.24,West,280,0.0,0.0,93,0.00,,,0.00,Wunderground v.1.15,2013-12-28 10:44:00,
2013-12-28 05:54:00,20.1,18.4,30.24,West,280,0.0,0.0,93,0.00,,,0.00,Wunderground v.1.15,2013-12-28 10:54:00,
2013-12-28 05:59:00,20.2,18.5,30.24,West,280,0.0,0.0,93,0.00,,,0.00,Wunderground v.1.15,2013-12-28 10:59:00,
2013-12-28 06:09:00,20.2,18.5,30.24,West,280,0.0,0.0,93,0.00,,,0.00,Wunderground v.1.15,2013-12-28 11:09:00,
2013-12-28 06:14:00,20.0,18.3,30.24,West,280,0.0,0.0,93,0.00,,,0.00,Wunderground v.1.15,2013-12-28 11:14:00,
2013-12-28 06:23:00,19.9,18.2,30.24,West,280,0.0,0.0,93,0.00,,,0.00,Wunderground v.1.15,2013-12-28 11:23:00,
2013-12-28 06:29:00,20.1,18.7,30.24,West,280,0.0,0.0,94,0.00,,,0.00,Wunderground v.1.15,2013-12-28 11:29:00,
2013-12-28 06:38:00,20.2,18.5,30.25,West,280,0.0,0.0,93,0.00,,,0.00,Wunderground v.1.15,2013-12-28 11:38:00,
2013-12-28 06:44:00,20.3,18.6,30.25,West,280,0.0,0.0,93,0.00,,,0.00,Wunderground v.1.15,2013-12-28 11:44:00,
2013-12-28 06:53:00,20.6,19.1,30.25,West,280,0.0,0.0,94,0.00,,,0.00,Wunderground v.1.15,2013-12-28 11:53:00,
2013-12-28 06:59:00,20.7,19.2,30.25,West,280,0.0,0.0,94,0.00,,,0.00,Wunderground v.1.15,2013-12-28 11:59:00,
2013-12-28 07:08:00,21.0,19.5,30.25,West,280,0.0,0.0,94,0.00,,,0.00,Wunderground v.1.15,2013-12-28 12:08:00,
2013-12-28 07:14:00,21.1,19.6,30.25,West,280,0.0,0.0,94,0.00,,,0.00,Wunderground v.1.15,2013-12-28 12:14:00,
2013-12-28 07:23:00,21.6,20.1,30.25,West,280,0.0,0.0,94,0.00,,,0.00,Wunderground v.1.15,2013-12-28 12:23:00,
2013-12-28 07:29:00,21.9,20.7,30.25,West,280,0.0,0.0,95,0.00,,,0.00,Wunderground v.1.15,2013-12-28 12:29:00,
2013-12-28 07:38:00,22.6,21.4,30.25,West,280,0.0,0.0,95,0.00,,,0.00,Wunderground v.1.15,2013-12-28 12:38:00,
2013-12-28 07:44:00,23.0,21.8,30.25,West,280,0.0,0.0,95,0.00,,,0.00,Wunderground v.1.15,2013-12-28 12:44:00,
2013-12-28 07:53:00,23.3,21.8,30.25,West,280,0.0,0.0,94,0.00,,,0.00,Wunderground v.1.15,2013-12-28 12:53:00,
2013-12-28 07:59:00,23.4,21.9,30.25,West,280,0.0,0.0,94,0.00,,,0.00,Wunderground v.1.15,2013-12-28 12:59:00,
2013-12-28 08:08:00,24.0,22.8,30.25,West,280,0.0,0.0,95,0.00,,,0.00,Wunderground v.1.15,2013-12-28 13:08:00,
2013-12-28 08:14:00,24.4,23.2,30.25,West,280,0.0,0.0,95,0.00,,,0.00,Wunderground v.1.15,2013-12-28 13:14:00,
2013-12-28 08:23:00,25.4,24.2,30.25,West,280,0.0,0.0,95,0.00,,,0.00,Wunderground v.1.15,2013-12-28 13:23:00,
2013-12-28 08:29:00,26.0,25.0,30.25,West,280,0.0,0.0,96,0.00,,,0.00,Wunderground v.1.15,2013-12-28 13:29:00,
2013-12-28 08:39:00,26.8,25.6,30.25,West,280,0.0,0.0,95,0.00,,,0.00,Wunderground v.1.15,2013-12-28 13:39:00,
2013-12-28 08:44:00,27.3,25.5,30.25,West,280,0.0,0.0,93,0.00,,,0.00,Wunderground v.1.15,2013-12-28 13:44:00,
2013-12-28 08:54:00,28.3,26.0,30.26,West,280,1.0,1.0,91,0.00,,,0.00,Wunderground v.1.15,2013-12-28 13:54:00,
2013-12-28 08:59:00,28.8,25.7,30.26,West,280,1.0,1.0,88,0.00,,,0.00,Wunderground v.1.15,2013-12-28 13:59:00,
2013-12-28 09:09:00,29.7,25.7,30.26,West,272,1.0,1.0,85,0.00,,,0.00,Wunderground v.1.15,2013-12-28 14:09:00,
2013-12-28 09:14:00,30.1,25.8,30.26,West,272,1.0,1.0,84,0.00,,,0.00,Wunderground v.1.15,2013-12-28 14:14:00,
2013-12-28 09:23:00,30.7,26.1,30.25,West,272,0.0,1.0,83,0.00,,,0.00,Wunderground v.1.15,2013-12-28 14:23:00,
2013-12-28 09:29:00,30.9,26.3,30.26,West,272,0.0,0.0,83,0.00,,,0.00,Wunderground v.1.15,2013-12-28 14:29:00,
2013-12-28 09:38:00,31.3,26.4,30.25,West,272,0.0,0.0,82,0.00,,,0.00,Wunderground v.1.15,2013-12-28 14:38:00,
2013-12-28 09:44:00,31.5,26.6,30.25,West,272,0.0,0.0,82,0.00,,,0.00,Wunderground v.1.15,2013-12-28 14:44:00,
2013-12-28 09:54:00,32.2,26.4,30.24,West,272,0.0,1.0,79,0.00,,,0.00,Wunderground v.1.15,2013-12-28 14:54:00,
2013-12-28 09:59:00,32.6,26.8,30.25,West,272,1.0,1.0,79,0.00,,,0.00,Wunderground v.1.15,2013-12-28 14:59:00,
2013-12-28 10:09:00,33.5,26.7,30.25,West,272,0.0,1.0,76,0.00,,,0.00,Wunderground v.1.15,2013-12-28 15:09:00,
2013-12-28 10:14:00,34.0,26.9,30.25,SW,217,1.0,3.0,75,0.00,,,0.00,Wunderground v.1.15,2013-12-28 15:14:00,
2013-12-28 10:23:00,34.9,28.1,30.25,SSW,200,1.0,1.0,76,0.00,,,0.00,Wunderground v.1.15,2013-12-28 15:23:00,
2013-12-28 10:29:00,35.3,27.8,30.25,SSW,208,1.0,3.0,74,0.00,,,0.00,Wunderground v.1.15,2013-12-28 15:29:00,
2013-12-28 10:39:00,36.1,27.6,30.24,SW,217,2.0,2.0,71,0.00,,,0.00,Wunderground v.1.15,2013-12-28 15:39:00,
2013-12-28 10:44:00,36.4,27.9,30.24,South,190,2.0,2.0,71,0.00,,,0.00,Wunderground v.1.15,2013-12-28 15:44:00,
2013-12-28 10:53:00,37.0,28.5,30.23,South,188,1.0,2.0,71,0.00,,,0.00,Wunderground v.1.15,2013-12-28 15:53:00,
2013-12-28 10:59:00,37.3,28.4,30.24,SW,220,1.0,1.0,70,0.00,,,0.00,Wunderground v.1.15,2013-12-28 15:59:00,
2013-12-28 11:08:00,38.5,28.9,30.23,West,265,1.0,1.0,68,0.00,,,0.00,Wunderground v.1.15,2013-12-28 16:08:00,
2013-12-28 11:14:00,39.3,29.3,30.22,SW,229,1.0,3.0,67,0.00,,,0.00,Wunderground v.1.15,2013-12-28 16:14:00,
2013-12-28 11:23:00,40.5,28.9,30.21,SW,214,2.0,2.0,63,0.00,,,0.00,Wunderground v.1.15,2013-12-28 16:23:00,
2013-12-28 11:29:00,41.1,29.5,30.21,SSW,195,3.0,4.0,63,0.00,,,0.00,Wunderground v.1.15,2013-12-28 16:29:00,
2013-12-28 11:38:00,41.7,29.2,30.20,West,275,3.0,3.0,61,0.00,,,0.00,Wunderground v.1.15,2013-12-28 16:38:00,
2013-12-28 11:44:00,42.2,29.3,30.19,West,260,2.0,3.0,60,0.00,,,0.00,Wunderground v.1.15,2013-12-28 16:44:00,
2013-12-28 11:54:00,43.0,29.2,30.18,SW,226,3.0,5.0,58,0.00,,,0.00,Wunderground v.1.15,2013-12-28 16:54:00,
2013-12-28 11:59:00,43.4,29.6,30.18,West,273,3.0,3.0,58,0.00,,,0.00,Wunderground v.1.15,2013-12-28 16:59:00,
2013-12-28 12:08:00,44.0,29.3,30.17,SSW,208,4.0,4.0,56,0.00,,,0.00,Wunderground v.1.15,2013-12-28 17:08:00,
2013-12-28 12:14:00,44.4,29.7,30.17,SW,233,3.0,5.0,56,0.00,,,0.00,Wunderground v.1.15,2013-12-28 17:14:00,
2013-12-28 12:23:00,45.1,29.4,30.16,West,275,3.0,3.0,54,0.00,,,0.00,Wunderground v.1.15,2013-12-28 17:23:00,
2013-12-28 12:28:00,45.5,29.3,30.15,West,271,3.0,3.0,53,0.00,,,0.00,Wunderground v.1.15,2013-12-28 17:28:00,
2013-12-28 12:38:00,46.2,30.0,30.14,WSW,254,3.0,5.0,53,0.00,,,0.00,Wunderground v.1.15,2013-12-28 17:38:00,
2013-12-28 12:43:00,46.5,29.8,30.14,SW,224,3.0,5.0,52,0.00,,,0.00,Wunderground v.1.15,2013-12-28 17:43:00,
2013-12-28 12:54:00,47.4,29.7,30.13,West,263,4.0,5.0,50,0.00,,,0.00,Wunderground v.1.15,2013-12-28 17:54:00,
2013-12-28 12:59:00,47.7,29.5,30.13,West,268,3.0,3.0,49,0.00,,,0.00,Wunderground v.1.15,2013-12-28 17:59:00,
2013-12-28 13:08:00,48.2,29.9,30.12,West,269,3.0,3.0,49,0.00,,,0.00,Wunderground v.1.15,2013-12-28 18:08:00,
2013-12-28 13:13:00,48.3,30.0,30.12,SW,227,3.0,5.0,49,0.00,,,0.00,Wunderground v.1.15,2013-12-28 18:13:00,
2013-12-28 13:24:00,48.6,30.3,30.12,West,267,4.0,4.0,49,0.00,,,0.00,Wunderground v.1.15,2013-12-28 18:24:00,
2013-12-28 13:29:00,48.7,29.4,30.12,SW,231,4.0,4.0,47,0.00,,,0.00,Wunderground v.1.15,2013-12-28 18:29:00,
2013-12-28 13:38:00,49.2,30.3,30.12,SW,219,3.0,3.0,48,0.00,,,0.00,Wunderground v.1.15,2013-12-28 18:38:00,
2013-12-28 13:44:00,49.4,31.0,30.12,SW,226,3.0,3.0,49,0.00,,,0.00,Wunderground v.1.15,2013-12-28 18:44:00,
2013-12-28 13:54:00,49.4,30.5,30.11,WNW,286,3.0,3.0,48,0.00,,,0.00,Wunderground v.1.15,2013-12-28 18:54:00,
2013-12-28 13:59:00,49.3,30.4,30.11,SW,230,3.0,4.0,48,0.00,,,0.00,Wunderground v.1.15,2013-12-28 18:59:00,
2013-12-28 14:08:00,49.1,30.2,30.11,SSW,202,3.0,7.0,48,0.00,,,0.00,Wunderground v.1.15,2013-12-28 19:08:00,
2013-12-28 14:14:00,49.0,30.1,30.11,SSW,204,4.0,7.0,48,0.00,,,0.00,Wunderground v.1.15,2013-12-28 19:14:00,
2013-12-28 14:23:00,49.1,30.2,30.11,West,266,3.0,4.0,48,0.00,,,0.00,Wunderground v.1.15,2013-12-28 19:23:00,
2013-12-28 14:29:00,49.1,30.2,30.11,West,267,3.0,3.0,48,0.00,,,0.00,Wunderground v.1.15,2013-12-28 19:29:00,
2013-12-28 14:38:00,49.1,30.2,30.10,West,272,2.0,4.0,48,0.00,,,0.00,Wunderground v.1.15,2013-12-28 19:38:00,
2013-12-28 14:43:00,49.4,30.5,30.10,SSW,192,2.0,4.0,48,0.00,,,0.00,Wunderground v.1.15,2013-12-28 19:43:00,
2013-12-28 14:53:00,49.6,30.7,30.10,SW,223,2.0,3.0,48,0.00,,,0.00,Wunderground v.1.15,2013-12-28 19:53:00,
2013-12-28 14:58:00,49.8,30.9,30.10,SSW,202,3.0,3.0,48,0.00,,,0.00,Wunderground v.1.15,2013-12-28 19:58:00,
2013-12-28 15:09:00,49.7,31.3,30.10,SSW,204,2.0,4.0,49,0.00,,,0.00,Wunderground v.1.15,2013-12-28 20:09:00,
2013-12-28 15:18:00,49.5,30.6,30.10,SW,224,2.0,2.0,48,0.00,,,0.00,Wunderground v.1.15,2013-12-28 20:18:00,
2013-12-28 15:23:00,49.6,31.2,30.10,West,259,2.0,2.0,49,0.00,,,0.00,Wunderground v.1.15,2013-12-28 20:23:00,
2013-12-28 15:29:00,49.6,31.2,30.10,SSW,194,2.0,2.0,49,0.00,,,0.00,Wunderground v.1.15,2013-12-28 20:29:00,
2013-12-28 15:38:00,49.5,31.1,30.10,West,270,1.0,1.0,49,0.00,,,0.00,Wunderground v.1.15,2013-12-28 20:38:00,
2013-12-28 15:48:00,49.5,31.1,30.10,West,269,2.0,2.0,49,0.00,,,0.00,Wunderground v.1.15,2013-12-28 20:48:00,
2013-12-28 15:59:00,49.5,31.1,30.10,WSW,254,2.0,4.0,49,0.00,,,0.00,Wunderground v.1.15,2013-12-28 20:59:00,
2013-12-28 16:08:00,49.3,31.4,30.10,West,263,1.0,2.0,50,0.00,,,0.00,Wunderground v.1.15,2013-12-28 21:08:00,
2013-12-28 16:18:00,48.8,31.0,30.10,WSW,254,1.0,1.0,50,0.00,,,0.00,Wunderground v.1.15,2013-12-28 21:18:00,
2013-12-28 16:23:00,48.4,31.1,30.10,WSW,254,1.0,1.0,51,0.00,,,0.00,Wunderground v.1.15,2013-12-28 21:23:00,
2013-12-28 16:29:00,48.1,31.3,30.10,WSW,254,1.0,1.0,52,0.00,,,0.00,Wunderground v.1.15,2013-12-28 21:29:00,
2013-12-28 16:38:00,47.6,31.3,30.11,WSW,254,0.0,0.0,53,0.00,,,0.00,Wunderground v.1.15,2013-12-28 21:38:00,
2013-12-28 16:43:00,47.4,33.4,30.11,WSW,254,0.0,0.0,58,0.00,,,0.00,Wunderground v.1.15,2013-12-28 21:43:00,
2013-12-28 16:53:00,46.7,31.4,30.11,WSW,254,0.0,0.0,55,0.00,,,0.00,Wunderground v.1.15,2013-12-28 21:53:00,
2013-12-28 16:58:00,46.4,31.1,30.12,WSW,254,0.0,0.0,55,0.00,,,0.00,Wunderground v.1.15,2013-12-28 21:58:00,
2013-12-28 17:08:00,45.6,31.2,30.12,WSW,254,0.0,0.0,57,0.00,,,0.00,Wunderground v.1.15,2013-12-28 22:08:00,
2013-12-28 17:13:00,45.2,30.9,30.11,WSW,254,0.0,0.0,57,0.00,,,0.00,Wunderground v.1.15,2013-12-28 22:13:00,
2013-12-28 17:23:00,44.2,30.8,30.12,WSW,254,0.0,0.0,59,0.00,,,0.00,Wunderground v.1.15,2013-12-28 22:23:00,
2013-12-28 17:28:00,43.5,30.5,30.12,WSW,254,0.0,0.0,60,0.00,,,0.00,Wunderground v.1.15,2013-12-28 22:28:00,
2013-12-28 17:38:00,42.4,30.7,30.12,WSW,254,0.0,0.0,63,0.00,,,0.00,Wunderground v.1.15,2013-12-28 22:38:00,
2013-12-28 17:43:00,41.5,30.2,30.12,WSW,254,0.0,0.0,64,0.00,,,0.00,Wunderground v.1.15,2013-12-28 22:43:00,
2013-12-28 17:53:00,40.0,29.6,30.12,WSW,254,0.0,0.0,66,0.00,,,0.00,Wunderground v.1.15,2013-12-28 22:53:00,
2013-12-28 17:58:00,39.3,29.6,30.13,WSW,254,0.0,0.0,68,0.00,,,0.00,Wunderground v.1.15,2013-12-28 22:58:00,
2013-12-28 18:08:00,38.5,29.6,30.13,WSW,254,0.0,0.0,70,0.00,,,0.00,Wunderground v.1.15,2013-12-28 23:08:00,
2013-12-28 18:13:00,38.0,29.4,30.13,WSW,254,0.0,0.0,71,0.00,,,0.00,Wunderground v.1.15,2013-12-28 23:13:00,
2013-12-28 18:23:00,37.4,29.5,30.14,WSW,254,0.0,0.0,73,0.00,,,0.00,Wunderground v.1.15,2013-12-28 23:23:00,
2013-12-28 18:28:00,37.0,29.1,30.14,WSW,254,0.0,0.0,73,0.00,,,0.00,Wunderground v.1.15,2013-12-28 23:28:00,
2013-12-28 18:38:00,35.9,28.7,30.13,WSW,254,0.0,0.0,75,0.00,,,0.00,Wunderground v.1.15,2013-12-28 23:38:00,
2013-12-28 18:43:00,35.3,28.8,30.13,WSW,254,0.0,0.0,77,0.00,,,0.00,Wunderground v.1.15,2013-12-28 23:43:00,
2013-12-28 18:53:00,35.0,28.8,30.12,WSW,254,0.0,0.0,78,0.00,,,0.00,Wunderground v.1.15,2013-12-28 23:53:00,
2013-12-28 18:58:00,34.7,28.5,30.12,WSW,254,0.0,0.0,78,0.00,,,0.00,Wunderground v.1.15,2013-12-28 23:58:00,
2013-12-28 19:08:00,34.7,29.5,30.12,WSW,254,0.0,0.0,81,0.00,,,0.00,Wunderground v.1.15,2013-12-29 00:08:00,
2013-12-28 19:18:00,34.3,30.3,30.13,WSW,254,0.0,0.0,85,0.00,,,0.00,Wunderground v.1.15,2013-12-29 00:18:00,
2013-12-28 19:23:00,34.6,30.3,30.13,WSW,254,0.0,0.0,84,0.00,,,0.00,Wunderground v.1.15,2013-12-29 00:23:00,
2013-12-28 19:29:00,34.3,29.1,30.13,WSW,254,0.0,0.0,81,0.00,,,0.00,Wunderground v.1.15,2013-12-29 00:29:00,
2013-12-28 19:38:00,33.7,28.2,30.13,WSW,254,0.0,0.0,80,0.00,,,0.00,Wunderground v.1.15,2013-12-29 00:38:00,
2013-12-28 19:43:00,33.5,29.2,30.13,WSW,254,0.0,0.0,84,0.00,,,0.00,Wunderground v.1.15,2013-12-29 00:43:00,
2013-12-28 19:53:00,33.1,28.2,30.13,WSW,254,0.0,0.0,82,0.00,,,0.00,Wunderground v.1.15,2013-12-29 00:53:00,
2013-12-28 19:58:00,32.5,27.6,30.13,WSW,254,0.0,0.0,82,0.00,,,0.00,Wunderground v.1.15,2013-12-29 00:58:00,
2013-12-28 20:08:00,31.7,27.4,30.13,WSW,254,0.0,0.0,84,0.00,,,0.00,Wunderground v.1.15,2013-12-29 01:08:00,
2013-12-28 20:18:00,32.0,28.8,30.13,WSW,254,0.0,0.0,88,0.00,,,0.00,Wunderground v.1.15,2013-12-29 01:18:00,
2013-12-28 20:28:00,31.7,28.0,30.13,WSW,254,0.0,0.0,86,0.00,,,0.00,Wunderground v.1.15,2013-12-29 01:28:00,
2013-12-28 20:33:00,31.5,27.5,30.13,WSW,254,0.0,0.0,85,0.00,,,0.00,Wunderground v.1.15,2013-12-29 01:33:00,
2013-12-28 20:39:00,31.3,27.6,30.13,WSW,254,0.0,0.0,86,0.00,,,0.00,Wunderground v.1.15,2013-12-29 01:39:00,
2013-12-28 20:44:00,31.1,27.4,30.13,WSW,254,0.0,0.0,86,0.00,,,0.00,Wunderground v.1.15,2013-12-29 01:44:00,
2013-12-28 20:54:00,31.0,27.6,30.13,WSW,254,0.0,0.0,87,0.00,,,0.00,Wunderground v.1.15,2013-12-29 01:54:00,
2013-12-28 20:59:00,30.9,27.8,30.13,WSW,254,0.0,0.0,88,0.00,,,0.00,Wunderground v.1.15,2013-12-29 01:59:00,
2013-12-28 21:09:00,30.9,28.0,30.13,WSW,254,0.0,0.0,89,0.00,,,0.00,Wunderground v.1.15,2013-12-29 02:09:00,
2013-12-28 21:19:00,30.7,27.8,30.12,WSW,254,0.0,0.0,89,0.00,,,0.00,Wunderground v.1.15,2013-12-29 02:19:00,
2013-12-28 21:29:00,30.3,27.2,30.12,WSW,254,0.0,0.0,88,0.00,,,0.00,Wunderground v.1.15,2013-12-29 02:29:00,
2013-12-28 21:39:00,30.1,27.3,30.12,WSW,254,0.0,0.0,89,0.00,,,0.00,Wunderground v.1.15,2013-12-29 02:39:00,
2013-12-28 21:44:00,30.3,27.7,30.12,WSW,254,0.0,0.0,90,0.00,,,0.00,Wunderground v.1.15,2013-12-29 02:44:00,
2013-12-28 21:54:00,30.8,28.8,30.12,WSW,254,0.0,0.0,92,0.00,,,0.00,Wunderground v.1.15,2013-12-29 02:54:00,
2013-12-28 21:59:00,30.7,27.8,30.12,WSW,254,0.0,0.0,89,0.00,,,0.00,Wunderground v.1.15,2013-12-29 02:59:00,
2013-12-28 22:09:00,30.1,27.0,30.12,WSW,254,0.0,0.0,88,0.00,,,0.00,Wunderground v.1.15,2013-12-29 03:09:00,
2013-12-28 22:14:00,30.2,27.6,30.11,WSW,254,0.0,0.0,90,0.00,,,0.00,Wunderground v.1.15,2013-12-29 03:14:00,
2013-12-28 22:24:00,30.7,28.7,30.11,WSW,254,0.0,0.0,92,0.00,,,0.00,Wunderground v.1.15,2013-12-29 03:24:00,
2013-12-28 22:29:00,30.7,28.1,30.11,WSW,254,0.0,0.0,90,0.00,,,0.00,Wunderground v.1.15,2013-12-29 03:29:00,
2013-12-28 22:39:00,29.9,26.8,30.11,WSW,254,0.0,0.0,88,0.00,,,0.00,Wunderground v.1.15,2013-12-29 03:39:00,
2013-12-28 22:44:00,29.7,26.9,30.11,WSW,254,0.0,0.0,89,0.00,,,0.00,Wunderground v.1.15,2013-12-29 03:44:00,
2013-12-28 22:54:00,29.4,26.6,30.11,WSW,254,0.0,0.0,89,0.00,,,0.00,Wunderground v.1.15,2013-12-29 03:54:00,
2013-12-28 22:59:00,29.7,27.7,30.11,WSW,254,0.0,0.0,92,0.00,,,0.00,Wunderground v.1.15,2013-12-29 03:59:00,
2013-12-28 23:09:00,29.9,27.9,30.11,WSW,254,0.0,0.0,92,0.00,,,0.00,Wunderground v.1.15,2013-12-29 04:09:00,
2013-12-28 23:14:00,29.9,27.6,30.11,WSW,254,0.0,0.0,91,0.00,,,0.00,Wunderground v.1.15,2013-12-29 04:14:00,
2013-12-28 23:24:00,29.5,26.9,30.10,WSW,254,0.0,0.0,90,0.00,,,0.00,Wunderground v.1.15,2013-12-29 04:24:00,
2013-12-28 23:29:00,29.5,26.9,30.10,WSW,254,0.0,0.0,90,0.00,,,0.00,Wunderground v.1.15,2013-12-29 04:29:00,
2013-12-28 23:39:00,29.5,27.2,30.10,WSW,254,0.0,0.0,91,0.00,,,0.00,Wunderground v.1.15,2013-12-29 04:39:00,
2013-12-28 23:44:00,29.4,26.8,30.09,WSW,254,0.0,0.0,90,0.00,,,0.00,Wunderground v.1.15,2013-12-29 04:44:00,
2013-12-28 23:54:00,29.3,26.7,30.09,WSW,254,0.0,0.0,90,0.00,,,0.00,Wunderground v.1.15,2013-12-29 04:54:00,
2013-12-28 23:59:00,29.1,26.5,30.09,WSW,254,0.0,0.0,90,0.00,,,0.00,Wunderground v.1.15,2013-12-29 04:59:00,